Location: *
(43.4667°N, 11.6833°E)
Time: 09:08:23
(UTC+00:00)

Cosmos 2221 Rocket - Pass Details

Date: 19 July 2019
Orbit: 619 x 649 km, 82.5° (Epoch: 24 August)

Event Time Altitude Azimuth Distance (km) Brightness Sun altitude
Rises 22:52:31 0° 357° (N) 2,959 8.4 -25.5°
Reaches altitude 10° 22:54:52 10° 4° (N) 2,041 7.2 -25.5°
Enters shadow 22:59:05 45° 71° (ENE) 873 4.3 -25.6°
